Location: Washington
(38.8950°N, 77.0370°W)
Time: 20:28:04
(UTC-04:00)

IDEFIX/ARIANE 42P - Visible Passes

Search period start: 24 July 2017 00:00
Search period end: 03 August 2017 00:00
Orbit: 784 x 804 km, 98.2° (Epoch: 24 July)

Date Brightness Start Highest point End Pass type
(mag) Time Alt. Az. Time Alt. Az. Time Alt. Az.
26 Jul 5.9 05:22:43 10° E 05:23:08 10° E 05:23:32 10° E visible
29 Jul 5.4 05:35:02 10° ENE 05:37:57 15° E 05:40:51 10° SE visible
02 Aug 5.8 05:22:53 10° ENE 05:24:06 11° E 05:25:20 10° ESE visible
